Volver al catálogo

STARLINK-2143

ActivoComunicacionesVLEO
NORAD 47733·PAYLOAD·🇺🇸 United States

Lanzado Mar 4, 2021 desde Cape Canaveral Space Force Station

Loading…

Próximos Pases (próximas 24 horas)

TLE

ActualizadoSource: CelesTrak SupGP

Época: Sep 14, 2026, 20:13 UTC

1 47733C 21017M   26257.84284722  .00042190  00000+0  13568-2 0  2571
2 47733  53.1589  56.4172 0001184  85.8992  71.8731 15.31678759    17

Sigue STARLINK-2143 en tiempo real con AllMySat

Download on the App Store